Location: Boiro
(42.6475°N, 8.8834°W)
Time: 07:48:10
(UTC+02:00)

NANOSAT C BR1 - Pass Details

Date: 22 August 2022
Orbit: 582 x 600 km, 98.0° (Epoch: 25 September)

Event Time Altitude Azimuth Distance (km) Brightness Sun altitude
Rises 05:54:07 0° 357° (N) 2,834 ? -19.6°
Reaches altitude 10° 05:56:46 10° 340° (NNW) 1,924 ? -19.2°
Enters shadow 05:59:42 19° 295° (WNW) 1,406 ? -18.8°
